Regional Weather Roundup
Issued by NWS Kansas City/Pleasant Hill, MO

Home | Current Version | Previous Version | Graphics & Text | Print | Product List | Glossary Off
Versions: 1 2 3 4 5 6 7 8 9 10 11 12 13 14 15 16 17 18 19 20 21 22 23 24 25 26 27 28 29 30 31 32 33 34 35 36 37 38 39 40 41 42 43 44 45 46 47 48 49 50

522
ASUS43 KEAX 240410
RWREAX

WEATHER ROUNDUP FOR EASTERN KANSAS AND NORTHWEST MISSOURI
NATIONAL WEATHER SERVICE KANSAS CITY/PLEASANT HILL MO
1000 PM CST THU FEB 23 2017

KSZ040-057-103>105-MOZ028-029-037-043-240500-
...KANSAS CITY METROPOLITAN AREA...

CITY           SKY/WX    TMP DP  RH WIND       PRES   REMARKS
K.C. INTL      CLOUDY    48  46  93 NE9       29.37F
K.C. DOWNTOWN  CLEAR     50  47  89 E7        29.36F
LEES SUMMIT    CLEAR     50  48  93 E14       29.37F FOG
OLATHE - IXD   PTCLDY    50  47  89 E7        29.38R
OLATHE - OJC   CLEAR     48  48 100 E8        29.36F
LAWRENCE       CLOUDY    48  45  89 NE6       29.38F

$$

MOZ001>008-011>017-020>025-030>033-038>040-044>046-053-054-240500-
...NORTHERN AND CENTRAL MISSOURI...

CITY           SKY/WX    TMP DP  RH WIND       PRES   REMARKS
ST. JOSEPH     CLOUDY    47  46  97 NE12      29.40F FOG
MOSBY          PTCLDY    50  46  87 E8        29.38F
WARRENSBURG    PTCLDY    48  46  93 E6        29.38F
WHITEMAN AFB   PTCLDY    48  48 100 E3        29.37F
CLINTON        CLEAR     57  48  72 CALM      29.39S
SEDALIA        CLOUDY    60  51  72 SE8       29.41F
WARSAW         NOT AVBL
CHILLICOTHE      N/A     50  48  93 NE5       29.42F
KIRKSVILLE     CLOUDY    49  48  97 VRB5      29.47F FOG

$$

MOZ041-047>049-056>058-063>065-088>090-097-240500-
...EASTERN AND SOUTHERN MISSOURI...

CITY           SKY/WX    TMP DP  RH WIND       PRES   REMARKS
ST. LOUIS INTL CLOUDY    66  54  65 SE10      29.53F
SPIRIT OF STL  MOCLDY    63  56  78 E5        29.51F
COLUMBIA       PTCLDY    64  55  72 S16       29.44R
JEFFERSON CITY MOCLDY    64  54  69 E12       29.45R
ROLLA          CLEAR     64  56  75 S16       29.48S
OSAGE BEACH    CLEAR     68  55  63 S12G22    29.45
SPRINGFIELD    CLEAR     67  49  52 S16       29.45F
BRANSON        CLEAR     68  52  56 S12G21    29.52F
JOPLIN         PTCLDY    73  48  41 S28G36    29.39F
WEST PLAINS    MOCLDY    65  56  72 S13G21    29.57R

$$

IAZ060-094-KSZ022-034>040-054-083-096-NEZ052-066-093-240500-
...KANSAS...SOUTHEAST NEBRASKA AND IOWA...

CITY           SKY/WX    TMP DP  RH WIND       PRES   REMARKS
TOPEKA         CLOUDY    47  45  93 NW13      29.44R
MANHATTAN      CLOUDY    41  37  86 N18G30    29.55R WCI  32
EMPORIA        MOCLDY    46  42  86 NW18G28   29.44R
CHANUTE        PTCLDY    68  46  45 S12       29.34F
WICHITA        CLOUDY    43  37  79 N31G41    29.52R WCI  32
OMAHA          TSTM      35  31  85 N17       29.59R WCI  25
LINCOLN        LGT SNOW  33  32  96 N21       29.64F FOG     WCI  21
FALLS CITY     LGT RAIN  43  41  93 NW17      29.50R FOG
LAMONI         CLOUDY    44  43  96 NE16      29.46F FOG
DES MOINES     DRIZZLE   42  40  92 NE16G23   29.57F FOG     WCI  34

$$





USA.gov is the U.S. government's official web portal to all federal, state and local government web resources and services.